User: anonymous   Login
Location: Miami, Florida
(25.6830°N, 80.1700°W)
Time: 23:03:08
(UTC-04:00)
Language:

ISS - Orbit

View from above orbital plane
View from above orbital plane
View from above satellite
View from above satellite

Ground track
Ground track

The orbit data is extracted from the following two-line orbital elements,

1 25544U 98067A   18172.50801637  .00016717  00000-0  10270-3 0  9017
2 25544  51.6383 357.1727 0002953 218.3759 141.7184 15.54210305 39187
Epoch (UTC): 21 June 2018 12:11:32
Eccentricity: 0.0002953
inclination: 51.6383°
perigee height: 402 km
apogee height: 406 km
right ascension of ascending node: 357.1727°
argument of perigee: 218.3759°
revolutions per day: 15.54210305
mean anomaly at epoch: 141.7184°
orbit number at epoch: 3918

The dashed part of the orbit path shows where the satellite is in the earth's shadow,  

DLR